When you browse on this site, cookies collect data to enhance your experience and personalize the content and advertising you see.
Visit our Privacy Policy to learn more. By continuing to use the site, you agree to this use of cookies and data.
  • In Schweiz
  • Länderverzeichnis
  • Für 7 Tage
  • Wassertemperatur
  • Satellitenkarten
  • Wetterkarte
  • Widgets
  • user-avatar
    Anmelden

    Stündliche Wetter Barra

    Heute, 10 Dezember, Montag

    Zeit Temperatur Niederschläge Wind Luftdruck Luftfeuchtigkeit
    00:00 +26°C° 2.3 mm 8 m/S 743 mmHg 93%
    01:00 +26°C° 2.3 mm 8 m/S 743 mmHg 94%
    02:00 +26°C° 2.3 mm 7 m/S 743 mmHg 94%
    03:00 +26°C° 2.3 mm 7 m/S 743 mmHg 94%
    04:00 +26°C° 0 mm 6 m/S 743 mmHg 94%
    05:00 +26°C° 2.2 mm 6 m/S 743 mmHg 94%
    06:00 +26°C° 2.2 mm 6 m/S 744 mmHg 95%
    07:00 +26°C° 2.2 mm 6 m/S 744 mmHg 95%
    08:00 +26°C° 1.8 mm 6 m/S 744 mmHg 95%
    09:00 +26°C° 1.8 mm 5 m/S 745 mmHg 95%
    10:00 +26°C° 0 mm 5 m/S 745 mmHg 94%
    11:00 +26°C° 1.9 mm 5 m/S 745 mmHg 94%
    12:00 +26°C° 1.9 mm 5 m/S 745 mmHg 93%
    13:00 +27°C° 1.9 mm 5 m/S 745 mmHg 93%
    14:00 +27°C° 1 mm 4 m/S 744 mmHg 93%
    15:00 +27°C° 1 mm 4 m/S 744 mmHg 93%
    16:00 +27°C° 0 mm 4 m/S 744 mmHg 93%
    17:00 +26°C° 0.7 mm 4 m/S 744 mmHg 94%
    18:00 +26°C° 0.7 mm 4 m/S 744 mmHg 95%
    19:00 +26°C° 0.7 mm 4 m/S 745 mmHg 96%
    20:00 +26°C° 1.6 mm 4 m/S 745 mmHg 96%
    21:00 +26°C° 1.6 mm 4 m/S 745 mmHg 96%
    22:00 +25°C° 0 mm 3 m/S 746 mmHg 97%
    23:00 +25°C° 1.4 mm 3 m/S 746 mmHg 97%

    Morgen, 11 Dezember, Dienstag

    Zeit Temperatur Niederschläge Wind Luftdruck Luftfeuchtigkeit
    00:00 +25°C° 1.4 mm 3 m/S 746 mmHg 97%
    01:00 +25°C° 1.4 mm 3 m/S 746 mmHg 97%
    02:00 +25°C° 1.3 mm 3 m/S 745 mmHg 97%
    03:00 +25°C° 1.3 mm 3 m/S 745 mmHg 97%
    04:00 +25°C° 1.3 mm 3 m/S 745 mmHg 97%
    05:00 +26°C° 1.2 mm 3 m/S 745 mmHg 96%
    06:00 +26°C° 1.2 mm 3 m/S 746 mmHg 95%
    07:00 +27°C° 1.2 mm 3 m/S 746 mmHg 94%
    08:00 +28°C° 1.1 mm 3 m/S 746 mmHg 88%
    09:00 +29°C° 1.1 mm 3 m/S 746 mmHg 83%
    10:00 +30°C° 1.1 mm 3 m/S 747 mmHg 77%
    11:00 +31°C° 0.5 mm 3 m/S 746 mmHg 73%
    12:00 +31°C° 0.5 mm 3 m/S 746 mmHg 70%
    13:00 +33°C° 0.5 mm 3 m/S 745 mmHg 66%
    14:00 +33°C° 0.1 mm 3 m/S 745 mmHg 67%
    15:00 +33°C° 0.1 mm 3 m/S 745 mmHg 68%
    16:00 +31°C° 0.1 mm 3 m/S 744 mmHg 69%
    17:00 +30°C° 0.1 mm 3 m/S 745 mmHg 75%
    18:00 +29°C° 0.1 mm 3 m/S 745 mmHg 82%
    19:00 +27°C° 0.1 mm 2 m/S 745 mmHg 88%
    20:00 +27°C° 0.1 mm 2 m/S 746 mmHg 90%
    21:00 +27°C° 0.1 mm 2 m/S 746 mmHg 92%
    22:00 +26°C° 0.1 mm 2 m/S 747 mmHg 93%
    23:00 +26°C° 0.2 mm 2 m/S 746 mmHg 94%

    übermorgen, 12 Dezember, Mittwoch

    Zeit Temperatur Niederschläge Wind Luftdruck Luftfeuchtigkeit
    00:00 +26°C° 0.2 mm 2 m/S 746 mmHg 95%
    01:00 +26°C° 0.2 mm 2 m/S 745 mmHg 96%
    02:00 +26°C° 0.1 mm 2 m/S 745 mmHg 96%
    03:00 +26°C° 0.1 mm 2 m/S 745 mmHg 96%
    04:00 +26°C° 0.1 mm 2 m/S 745 mmHg 96%
    05:00 +26°C° 0.1 mm 2 m/S 745 mmHg 94%
    06:00 +27°C° 0.1 mm 2 m/S 746 mmHg 92%
    07:00 +27°C° 0.1 mm 2 m/S 746 mmHg 91%
    08:00 +28°C° 0.2 mm 2 m/S 746 mmHg 84%
    09:00 +30°C° 0.2 mm 2 m/S 746 mmHg 78%
    10:00 +31°C° 0.2 mm 3 m/S 746 mmHg 72%
    11:00 +33°C° 0.2 mm 3 m/S 746 mmHg 70%
    12:00 +34°C° 0.2 mm 3 m/S 745 mmHg 67%
    13:00 +34°C° 0.2 mm 3 m/S 745 mmHg 64%
    14:00 +34°C° 0.2 mm 2 m/S 744 mmHg 67%
    15:00 +32°C° 0.2 mm 2 m/S 744 mmHg 69%
    16:00 +32°C° 0.2 mm 2 m/S 743 mmHg 71%
    17:00 +31°C° 0.2 mm 2 m/S 744 mmHg 77%
    18:00 +29°C° 0.2 mm 2 m/S 744 mmHg 83%
    19:00 +28°C° 0.2 mm 1 m/S 744 mmHg 89%
    20:00 +28°C° 0 mm 1 m/S 745 mmHg 91%
    21:00 +28°C° 0 mm 1 m/S 745 mmHg 92%
    22:00 +27°C° 0 mm 1 m/S 746 mmHg 94%
    23:00 +27°C° 0.1 mm 1 m/S 745 mmHg 95%

    13 Dezember, Donnerstag

    Zeit Temperatur Niederschläge Wind Luftdruck Luftfeuchtigkeit
    00:00 +27°C° 0.1 mm 1 m/S 745 mmHg 95%
    01:00 +27°C° 0.1 mm 1 m/S 744 mmHg 96%
    02:00 +27°C° 0.2 mm 1 m/S 744 mmHg 96%
    03:00 +27°C° 0.2 mm 1 m/S 744 mmHg 96%
    04:00 +27°C° 0.2 mm 1 m/S 744 mmHg 95%
    05:00 +27°C° 0.1 mm 1 m/S 744 mmHg 94%
    06:00 +27°C° 0.1 mm 1 m/S 745 mmHg 92%
    07:00 +28°C° 0.1 mm 1 m/S 745 mmHg 91%
    08:00 +29°C° 0.1 mm 1 m/S 745 mmHg 85%
    09:00 +30°C° 0.1 mm 1 m/S 746 mmHg 79%
    10:00 +31°C° 0.1 mm 1 m/S 746 mmHg 74%
    11:00 +31°C° 0.3 mm 1 m/S 745 mmHg 74%
    12:00 +31°C° 0.3 mm 1 m/S 745 mmHg 75%
    13:00 +31°C° 0.3 mm 2 m/S 744 mmHg 76%
    14:00 +30°C° 0.2 mm 2 m/S 744 mmHg 78%
    15:00 +30°C° 0.2 mm 2 m/S 743 mmHg 80%
    16:00 +30°C° 0.2 mm 3 m/S 743 mmHg 83%
    17:00 +29°C° 0.1 mm 3 m/S 743 mmHg 85%
    18:00 +28°C° 0.1 mm 3 m/S 743 mmHg 87%
    19:00 +28°C° 0.1 mm 3 m/S 744 mmHg 90%
    20:00 +27°C° 0 mm 3 m/S 744 mmHg 89%
    21:00 +27°C° 0 mm 3 m/S 743 mmHg 89%
    22:00 +27°C° 0 mm 3 m/S 743 mmHg 88%
    23:00 +27°C° 0 mm 3 m/S 743 mmHg 88%

    14 Dezember, Freitag

    Zeit Temperatur Niederschläge Wind Luftdruck Luftfeuchtigkeit
    00:00 +27°C° 0 mm 3 m/S 743 mmHg 87%
    01:00 +26°C° 0 mm 2 m/S 743 mmHg 87%
    02:00 +26°C° 0.4 mm 2 m/S 742 mmHg 88%
    03:00 +26°C° 0.4 mm 2 m/S 742 mmHg 89%
    04:00 +26°C° 0.4 mm 1 m/S 742 mmHg 90%
    05:00 +26°C° 0.7 mm 1 m/S 742 mmHg 91%
    06:00 +26°C° 0.7 mm 1 m/S 743 mmHg 92%
    07:00 +26°C° 0.7 mm 2 m/S 743 mmHg 93%
    08:00 +27°C° 0.1 mm 1 m/S 743 mmHg 88%
    09:00 +29°C° 0.1 mm 1 m/S 743 mmHg 82%
    10:00 +30°C° 0.1 mm 1 m/S 743 mmHg 77%
    11:00 +31°C° 0.3 mm 1 m/S 743 mmHg 72%
    12:00 +32°C° 0.3 mm 1 m/S 742 mmHg 67%
    13:00 +34°C° 0.3 mm 2 m/S 742 mmHg 61%
    14:00 +32°C° 2 mm 2 m/S 742 mmHg 68%
    15:00 +31°C° 2 mm 2 m/S 741 mmHg 75%
    16:00 +30°C° 2 mm 3 m/S 741 mmHg 82%
    17:00 +29°C° 2.8 mm 2 m/S 741 mmHg 86%
    18:00 +28°C° 2.8 mm 2 m/S 742 mmHg 89%
    19:00 +27°C° 2.8 mm 2 m/S 742 mmHg 93%
    20:00 +27°C° 1.4 mm 2 m/S 743 mmHg 94%
    21:00 +26°C° 1.4 mm 2 m/S 743 mmHg 95%
    22:00 +26°C° 1.4 mm 2 m/S 743 mmHg 95%
    23:00 +26°C° 2.4 mm 2 m/S 743 mmHg 96%

    15 Dezember, Samstag

    Zeit Temperatur Niederschläge Wind Luftdruck Luftfeuchtigkeit
    00:00 +26°C° 2.4 mm 2 m/S 743 mmHg 96%
    01:00 +26°C° 2.4 mm 2 m/S 742 mmHg 96%
    02:00 +26°C° 1.7 mm 2 m/S 742 mmHg 97%
    03:00 +26°C° 1.7 mm 3 m/S 741 mmHg 97%
    04:00 +26°C° 1.7 mm 3 m/S 740 mmHg 97%
    05:00 +26°C° 2.4 mm 3 m/S 740 mmHg 97%
    06:00 +26°C° 2.4 mm 4 m/S 740 mmHg 96%
    07:00 +26°C° 2.4 mm 5 m/S 740 mmHg 96%
    08:00 +27°C° 2.8 mm 6 m/S 740 mmHg 95%
    09:00 +27°C° 2.8 mm 8 m/S 739 mmHg 94%
    10:00 +27°C° 2.8 mm 9 m/S 738 mmHg 94%
    11:00 +27°C° 4.6 mm 10 m/S 738 mmHg 93%
    12:00 +27°C° 4.6 mm 12 m/S 737 mmHg 92%
    13:00 +27°C° 4.6 mm 13 m/S 736 mmHg 91%
    14:00 +27°C° 6.7 mm 13 m/S 736 mmHg 91%
    15:00 +27°C° 6.7 mm 12 m/S 736 mmHg 90%
    16:00 +27°C° 6.7 mm 12 m/S 736 mmHg 90%
    17:00 +27°C° 1.3 mm 11 m/S 736 mmHg 89%
    18:00 +27°C° 1.3 mm 11 m/S 737 mmHg 88%
    19:00 +27°C° 1.3 mm 10 m/S 737 mmHg 87%
    20:00 +27°C° 0.2 mm 9 m/S 738 mmHg 87%
    21:00 +27°C° 0.2 mm 7 m/S 739 mmHg 87%
    22:00 +27°C° 0.2 mm 6 m/S 739 mmHg 88%
    23:00 +27°C° 0 mm 6 m/S 739 mmHg 87%
    Mehr zeigen